Weather History for Maniwaki, QC

Change the Weather History Date:

Friday, May 3, 2013

  Actual Average Record
Temperature  
Mean Temperature 66 °F -  
Max Temperature 76 °F - - ()
Min Temperature 54 °F - - ()
Cooling Degree Days 2    
Growing Degree Days 16 (Base 50)    
Moisture  
Dew Point 38 °F    
Average Humidity 37    
Maximum Humidity 58    
Minimum Humidity 16    
Precipitation  
Precipitation 0.00 in - - ()
Sea Level Pressure  
Sea Level Pressure 30.34 in    
Wind  
Wind Speed 6 mph ()    
Max Wind Speed 12 mph    
Max Gust Speed -    
T = Trace of Precipitation, MM = Missing Value Source: Averaged Metar Reports

Daily Weather History Graph

Daily Weather History Graph

Search for Another Location

Airport:

Trip Planner

Search our weather history database for the weather conditions in past years. The results will help you decide how hot, cold, wet, or windy it might be!

Date:

Astronomy

May. 03, 2013 Rise Set
Actual Time 5:46 AM EDT 8:15 PM EDT
Civil Twilight 5:13 AM EDT 8:49 PM EDT
Nautical Twilight 4:31 AM EDT 9:31 PM EDT
Astronomical Twilight 3:43 AM EDT 10:20 PM EDT
Moon 2:31 AM EDT (5/3) 1:47 PM EDT (5/3)
Length of Visible Light 15h 36m
Length of Day
14h 28m
Last Quarter, 37% of the Moon is Illuminated
May 3
Last Quarter
May 9
New
May 18
First Quarter
May 25
Full
May 31
Last Quarter

Hourly Weather History & Observations

Time (EDT) Temp. Dew Point Humidity Pressure Visibility Wind Dir Wind Speed Gust Speed Precip Events Conditions
12:00 AM 66.4 °F 45.1 °F 46% 30.33 in - SE 8.1 mph - N/A   Unknown
1:00 AM 63.1 °F 45.3 °F 52% 30.34 in - SE 3.5 mph - N/A   Unknown
2:00 AM 61 °F 46 °F 46% 30.34 in - ESE 6.9 mph - -  
2:00 AM 60.6 °F 45.7 °F 58% 30.34 in - ESE 6.9 mph - N/A   Unknown
3:00 AM 62.2 °F 45.3 °F 54% 30.34 in - SE 6.9 mph - N/A   Unknown
4:00 AM 61.2 °F 44.6 °F 54% 30.35 in - SE 5.8 mph - N/A   Unknown
5:00 AM 59.2 °F 44.1 °F 57% 30.36 in - ESE 4.6 mph - N/A   Unknown
6:00 AM 57.9 °F 43.0 °F 58% 30.37 in - East 5.8 mph - N/A   Unknown
7:00 AM 59.2 °F 42.3 °F 53% 30.39 in - SE 6.9 mph - N/A   Unknown
8:00 AM 60 °F 41 °F 38% 30.40 in - ESE 10.4 mph - -  
8:00 AM 60.1 °F 41.0 °F 49% 30.40 in - ESE 10.4 mph - N/A   Unknown
9:00 AM 62.4 °F 41.4 °F 46% 30.40 in - East 9.2 mph - N/A   Unknown
10:00 AM 66.6 °F 41.0 °F 39% 30.39 in - SE 11.5 mph - N/A   Unknown
11:00 AM 68.5 °F 38.8 °F 34% 30.38 in - ESE 10.4 mph - N/A   Unknown
12:00 PM 70.2 °F 36.9 °F 30% 30.37 in - ESE 9.2 mph - N/A   Unknown
1:00 PM 73.4 °F 37.2 °F 27% 30.35 in - ESE 9.2 mph - N/A   Unknown
2:00 PM 73 °F 36 °F 16% 30.34 in - SSE 5.8 mph - -  
2:00 PM 72.9 °F 35.8 °F 26% 30.34 in - SSE 5.8 mph - N/A   Unknown
3:00 PM 74.5 °F 36.0 °F 25% 30.32 in - ESE 8.1 mph - N/A   Unknown
4:00 PM 75.4 °F 35.6 °F 24% 30.30 in - SE 6.9 mph - N/A   Unknown
5:00 PM 74.3 °F 31.3 °F 21% 30.29 in - South 6.9 mph - N/A   Unknown
6:00 PM 73.8 °F 31.3 °F 21% 30.29 in - SE 8.1 mph - N/A   Unknown
7:00 PM 71.2 °F 29.5 °F 21% 30.29 in - South 8.1 mph - N/A   Unknown
8:00 PM 67 °F 31 °F 16% 30.30 in - South 4.6 mph - -  
8:00 PM 66.9 °F 31.3 °F 27% 30.30 in - South 4.6 mph - N/A   Unknown
9:00 PM 60.6 °F 31.8 °F 34% 30.31 in - SE 2.3 mph - N/A   Unknown
10:00 PM 58.1 °F 31.3 °F 36% 30.32 in - South 3.5 mph - N/A   Unknown
11:00 PM 54.9 °F 31.5 °F 41% 30.32 in - Calm Calm - N/A   Unknown